Overview Statistics Trail Chart Weather Telemetry Raw packets
 

This is the latest recevied weather packets stored in our database for station/object HB9FHL-13. If no packets are shown the sender has not sent any weather packets the latest 10 day(s).

<< 31 32 33 34 35 36 37 >>
Time Temp. Humidity Pressure Rain* Wind** Luminosity Snow
1788500698 21.11° C - 1022.2 hPa 0 mm - - -
1788500517 21.67° C - 1020.1 hPa 0 mm - - -
1788500398 21.67° C - 1020.1 hPa 0 mm - - -
1788500098 21.67° C - 1024.7 hPa 0 mm - - -
1788499796 21.11° C - 1021 hPa 0 mm - - -
1788499496 21.11° C - 1025.5 hPa 0 mm - - -
1788498895 21.11° C - 1023.8 hPa 0 mm - - -
1788498352 21.67° C - 1022 hPa 0 mm - - -
1788498306 21.67° C - 1022 hPa 0 mm - - -
1788497993 20.56° C - 1023.8 hPa 0 mm - - -
1788497718 21.11° C - 1024 hPa 0 mm - - -
1788497686 21.11° C - 1024 hPa 0 mm - - -
1788497472 20.56° C - 1025.9 hPa 0 mm - - -
1788497386 20.56° C - 1025.9 hPa 0 mm - - -
1788497085 21.67° C - 1027.7 hPa 0 mm - - -
1788496785 22.22° C - 1023.4 hPa 0 mm - - -
1788496484 21.11° C - 1025.2 hPa 0 mm - - -
1788496184 21.67° C - 1026 hPa 0 mm - - -
1788495883 21.67° C - 1025.6 hPa 0 mm - - -
1788495282 21.67° C - 1021.1 hPa 0 mm - - -
1788495048 21.67° C - 1023.3 hPa 0 mm - - -
1788494981 21.67° C - 1023.3 hPa 0 mm - - -
1788494080 20.56° C - 1027.1 hPa 0 mm - - -
1788493779 21.11° C - 1021.1 hPa 0 mm - - -
1788493479 21.67° C - 1027.9 hPa 0 mm - - -

* Rain since midnight (hover to see other rain measurements)
** Current wind speed in m/s (hover to see current wind gust speed)